User: anonymous   Login
Location: Newark
(43.0000°N, 1.6781°W)
Time: 11:49:45
(UTC+00:00)
Language:

ITUPSAT 1 - Orbit

View from above orbital plane
View from above orbital plane
View from above satellite
View from above satellite

Ground track
Ground track

The orbit data is extracted from the following two-line orbital elements,

1 35935U 09051E   22337.87615463  .00000517  00000-0  12803-3 0  9997
2 35935  98.5480 199.8851 0006894 264.0342  96.0069 14.56184016700531
Epoch (UTC): 03 December 2022 21:01:39
Eccentricity: 0.0006894
inclination: 98.5480°
perigee height: 700 km
apogee height: 710 km
right ascension of ascending node: 199.8851°
argument of perigee: 264.0342°
revolutions per day: 14.56184016
mean anomaly at epoch: 96.0069°
orbit number at epoch: 70053

The dashed part of the orbit path shows where the satellite is in the earth's shadow,  

DLR